Precipitable_Water
0.52 0.55 0.58 0.58 0.56 0.52 0.50 0.50 0.51 0.50 0.50 0.52 0.53 0.52 0.52 0.50 0.50 0.51 0.52 0.56 0.59 0.59 0.58 0.57 0.57 0.57 0.56 0.54 0.50 0.46 0.45 0.35 0.27 0.24 0.24 0.21 0.24 0.37 0.32 0.39 0.43 0.50 0.56 0.51 0.52 0.52 0.49 0.64 0.71 0.83 0.86 0.90 0.89 0.88 0.86 0.87 0.82 0.80 0.66 0.57 0.56 0.65 0.62 0.68 0.70 0.79 0.82 0.79 0.86 0.88 0.87 0.76 0.72 0.80 0.91 1.10 1.02 1.00 0.93 0.89 1.01 1.13 1.06 1.07 1.17 1.28 1.34 1.39
0.50 0.53 0.56 0.57 0.56 0.53 0.51 0.51 0.51 0.50 0.50 0.52 0.53 0.52 0.52 0.53 0.51 0.51 0.53 0.58 0.59 0.58 0.57 0.57 0.57 0.57 0.55 0.50 0.48 0.47 0.42 0.34 0.23 0.23 0.20 0.21 0.30 0.30 0.35 0.37 0.39 0.44 0.51 0.46 0.45 0.48 0.49 0.70 0.75 0.76 0.79 0.80 0.89 0.81 0.83 0.80 0.77 0.67 0.58 0.55 0.53 0.60 0.62 0.77 0.79 0.83 0.87 0.79 0.86 0.85 0.88 0.85 0.80 0.94 1.00 0.93 0.88 0.87 0.82 0.91 0.92 0.91 1.00 1.10 1.18 1.24 1.27 1.30
0.49 0.49 0.53 0.56 0.57 0.55 0.53 0.51 0.50 0.50 0.50 0.51 0.53 0.53 0.53 0.52 0.51 0.51 0.54 0.60 0.60 0.57 0.57 0.57 0.56 0.54 0.50 0.49 0.48 0.48 0.41 0.30 0.26 0.16 0.14 0.20 0.25 0.27 0.37 0.40 0.37 0.43 0.41 0.39 0.45 0.50 0.63 0.71 0.75 0.73 0.76 0.70 0.81 0.75 0.68 0.67 0.67 0.60 0.53 0.50 0.53 0.71 0.79 0.82 0.85 0.88 0.96 0.89 0.85 0.89 0.86 0.93 0.91 0.99 1.07 1.00 0.90 0.90 0.79 0.77 0.82 0.79 0.83 0.96 1.07 1.17 1.20 1.22
0.48 0.48 0.50 0.54 0.56 0.56 0.54 0.51 0.49 0.49 0.49 0.51 0.52 0.52 0.52 0.52 0.51 0.51 0.56 0.62 0.60 0.58 0.56 0.54 0.51 0.49 0.48 0.48 0.49 0.50 0.43 0.26 0.13 0.25 0.32 0.30 0.24 0.24 0.29 0.36 0.36 0.38 0.41 0.41 0.46 0.55 0.73 0.74 0.70 0.69 0.67 0.69 0.68 0.69 0.55 0.58 0.50 0.54 0.55 0.51 0.49 0.60 0.63 0.80 0.86 0.83 0.87 0.92 0.83 0.78 0.86 0.86 0.97 1.00 1.05 0.91 0.90 0.91 0.82 0.88 0.76 0.74 0.80 0.91 1.04 1.10 1.17 1.18
0.46 0.47 0.48 0.51 0.54 0.55 0.55 0.53 0.51 0.51 0.51 0.50 0.52 0.52 0.52 0.51 0.51 0.51 0.57 0.63 0.61 0.59 0.55 0.50 0.46 0.46 0.44 0.47 0.47 0.49 0.32 0.11 0.24 0.49 0.51 0.39 0.27 0.25 0.27 0.31 0.34 0.33 0.35 0.38 0.46 0.60 0.70 0.69 0.63 0.66 0.64 0.62 0.63 0.61 0.52 0.55 0.48 0.54 0.54 0.57 0.59 0.62 0.62 0.70 0.72 0.86 0.86 0.83 0.80 0.82 0.81 0.84 0.96 0.99 1.01 1.01 0.86 0.84 0.84 0.90 0.91 0.90 0.85 0.91 0.98 1.07 1.14 1.14
0.46 0.46 0.47 0.48 0.51 0.54 0.55 0.54 0.52 0.50 0.50 0.50 0.51 0.52 0.52 0.52 0.51 0.51 0.56 0.63 0.61 0.60 0.54 0.47 0.47 0.46 0.46 0.46 0.45 0.42 0.25 0.09 0.31 0.44 0.48 0.42 0.32 0.29 0.28 0.29 0.32 0.30 0.32 0.36 0.42 0.60 0.66 0.63 0.63 0.57 0.55 0.57 0.58 0.59 0.49 0.51 0.46 0.49 0.55 0.61 0.71 0.73 0.69 0.72 0.73 0.76 0.80 0.78 0.84 0.87 0.87 0.91 0.88 0.86 0.99 1.07 1.00 0.99 1.05 0.98 0.98 0.95 0.95 0.95 1.03 1.08 1.08 1.09
0.45 0.46 0.45 0.47 0.50 0.52 0.55 0.55 0.53 0.50 0.48 0.48 0.51 0.52 0.52 0.51 0.51 0.49 0.54 0.63 0.62 0.60 0.54 0.47 0.48 0.51 0.48 0.45 0.46 0.30 0.21 0.17 0.30 0.39 0.43 0.48 0.41 0.35 0.31 0.31 0.33 0.27 0.31 0.33 0.40 0.57 0.64 0.61 0.62 0.54 0.53 0.53 0.52 0.51 0.42 0.40 0.42 0.57 0.56 0.58 0.53 0.73 0.64 0.66 0.70 0.82 0.86 0.83 0.84 0.88 0.94 0.88 0.88 0.79 0.93 0.96 1.09 1.12 1.04 1.02 1.02 1.01 0.98 0.99 0.98 1.03 1.03 1.06
0.46 0.46 0.46 0.46 0.48 0.50 0.53 0.53 0.52 0.49 0.48 0.48 0.49 0.52 0.52 0.51 0.50 0.50 0.52 0.63 0.63 0.60 0.55 0.47 0.50 0.50 0.50 0.38 0.24 0.19 0.23 0.13 0.20 0.35 0.44 0.45 0.40 0.37 0.34 0.31 0.24 0.25 0.29 0.31 0.39 0.53 0.63 0.59 0.55 0.55 0.53 0.50 0.52 0.44 0.47 0.36 0.43 0.47 0.52 0.58 0.62 0.64 0.62 0.71 0.72 0.71 0.71 0.78 0.86 0.88 0.86 0.87 0.95 0.88 0.93 0.91 1.05 1.10 1.02 1.03 1.01 0.96 0.97 0.96 0.96 0.99 1.02 1.04
0.46 0.45 0.45 0.45 0.46 0.49 0.50 0.51 0.52 0.49 0.49 0.49 0.48 0.50 0.52 0.51 0.51 0.50 0.52 0.62 0.64 0.61 0.56 0.50 0.47 0.50 0.53 0.32 0.17 0.13 0.10 0.27 0.31 0.44 0.51 0.39 0.35 0.32 0.30 0.21 0.25 0.22 0.26 0.33 0.42 0.54 0.61 0.58 0.52 0.48 0.44 0.50 0.54 0.44 0.37 0.41 0.41 0.51 0.58 0.62 0.61 0.58 0.65 0.67 0.67 0.71 0.78 0.83 0.80 0.73 0.78 0.84 0.92 1.01 0.94 0.98 1.02 1.05 1.09 0.99 0.95 0.91 0.88 0.90 0.95 0.98 0.97 0.98
0.48 0.46 0.45 0.45 0.45 0.47 0.48 0.50 0.52 0.51 0.49 0.49 0.48 0.49 0.51 0.51 0.50 0.50 0.51 0.61 0.65 0.61 0.56 0.50 0.50 0.48 0.40 0.27 0.21 0.10 0.27 0.48 0.46 0.48 0.47 0.38 0.33 0.26 0.22 0.19 0.21 0.22 0.23 0.29 0.40 0.50 0.59 0.57 0.48 0.49 0.52 0.48 0.42 0.37 0.35 0.35 0.52 0.60 0.59 0.58 0.61 0.67 0.63 0.67 0.75 0.76 0.81 0.81 0.77 0.66 0.62 0.71 0.86 0.91 0.72 0.97 0.98 0.96 0.94 0.90 0.92 0.89 0.87 0.93 0.96 0.95 0.95 0.99
0.49 0.47 0.45 0.45 0.45 0.46 0.47 0.49 0.51 0.51 0.49 0.48 0.48 0.48 0.50 0.51 0.51 0.50 0.52 0.60 0.66 0.62 0.56 0.52 0.50 0.47 0.34 0.36 0.13 0.09 0.42 0.55 0.56 0.57 0.47 0.41 0.32 0.23 0.16 0.18 0.21 0.21 0.23 0.28 0.36 0.49 0.59 0.57 0.56 0.54 0.53 0.53 0.39 0.32 0.34 0.44 0.57 0.57 0.59 0.61 0.65 0.65 0.69 0.67 0.67 0.71 0.72 0.68 0.74 0.70 0.63 0.71 0.80 0.87 0.78 0.87 0.95 0.93 0.83 0.84 0.88 0.92 0.89 0.96 0.97 0.92 0.95 1.06
0.49 0.48 0.47 0.46 0.46 0.46 0.47 0.48 0.49 0.51 0.50 0.48 0.48 0.47 0.49 0.50 0.50 0.50 0.53 0.61 0.66 0.64 0.58 0.54 0.49 0.47 0.41 0.30 0.18 0.10 0.34 0.50 0.67 0.62 0.54 0.38 0.27 0.19 0.15 0.18 0.22 0.20 0.22 0.26 0.35 0.47 0.56 0.53 0.51 0.50 0.43 0.47 0.36 0.31 0.30 0.45 0.46 0.54 0.58 0.55 0.58 0.69 0.66 0.67 0.61 0.63 0.73 0.65 0.80 0.83 0.73 0.67 0.71 0.67 0.81 0.91 0.94 0.91 0.84 0.85 0.87 0.87 0.93 0.98 0.99 0.91 0.98 1.10
0.51 0.49 0.47 0.47 0.47 0.47 0.47 0.47 0.47 0.49 0.49 0.48 0.47 0.47 0.47 0.49 0.50 0.51 0.55 0.59 0.67 0.66 0.61 0.55 0.53 0.49 0.41 0.17 0.14 0.22 0.34 0.52 0.53 0.56 0.43 0.36 0.28 0.22 0.17 0.22 0.23 0.22 0.24 0.28 0.37 0.51 0.53 0.50 0.47 0.41 0.42 0.40 0.34 0.28 0.35 0.50 0.52 0.59 0.59 0.57 0.51 0.65 0.60 0.69 0.71 0.70 0.69 0.79 0.88 0.89 0.60 0.64 0.67 0.71 0.83 0.95 1.02 0.95 0.85 0.85 0.89 0.89 0.96 1.01 1.02 0.92 1.00 1.11
0.50 0.50 0.48 0.47 0.47 0.47 0.48 0.46 0.46 0.48 0.48 0.48 0.47 0.47 0.46 0.48 0.48 0.53 0.56 0.61 0.67 0.67 0.62 0.61 0.59 0.49 0.40 0.20 0.23 0.35 0.47 0.51 0.48 0.46 0.45 0.39 0.23 0.19 0.20 0.27 0.29 0.25 0.29 0.32 0.44 0.51 0.48 0.42 0.39 0.40 0.52 0.42 0.38 0.37 0.37 0.45 0.56 0.52 0.56 0.56 0.52 0.57 0.56 0.73 0.70 0.63 0.72 0.77 0.83 0.86 0.64 0.66 0.74 0.74 0.83 0.97 1.07 0.98 0.87 0.92 0.93 0.94 0.98 1.00 1.02 0.94 1.00 1.07
0.51 0.49 0.48 0.47 0.46 0.47 0.47 0.46 0.45 0.45 0.48 0.48 0.46 0.46 0.45 0.46 0.49 0.54 0.59 0.62 0.68 0.69 0.66 0.63 0.59 0.43 0.36 0.27 0.45 0.47 0.49 0.56 0.47 0.45 0.49 0.36 0.21 0.18 0.18 0.24 0.28 0.31 0.29 0.35 0.44 0.46 0.42 0.36 0.38 0.44 0.41 0.46 0.46 0.34 0.34 0.51 0.52 0.53 0.49 0.44 0.55 0.58 0.59 0.72 0.73 0.67 0.69 0.73 0.80 0.75 0.67 0.68 0.76 0.73 0.81 0.94 1.02 1.03 0.94 0.97 0.99 1.01 1.03 1.01 1.01 0.91 1.05 1.07
0.51 0.50 0.49 0.48 0.47 0.46 0.46 0.45 0.43 0.43 0.46 0.47 0.45 0.44 0.44 0.46 0.53 0.58 0.62 0.66 0.71 0.74 0.73 0.50 0.49 0.51 0.40 0.22 0.35 0.59 0.47 0.31 0.36 0.51 0.51 0.44 0.28 0.16 0.17 0.19 0.25 0.29 0.29 0.36 0.42 0.39 0.34 0.28 0.34 0.42 0.43 0.44 0.39 0.34 0.34 0.48 0.48 0.52 0.49 0.51 0.53 0.58 0.60 0.63 0.65 0.68 0.77 0.79 0.77 0.72 0.69 0.77 0.80 0.82 0.79 0.86 0.93 0.99 0.97 0.99 0.99 1.03 1.02 1.03 0.98 0.89 1.07 1.06
0.53 0.51 0.50 0.49 0.48 0.48 0.46 0.44 0.42 0.42 0.43 0.46 0.46 0.43 0.43 0.47 0.55 0.62 0.71 0.76 0.74 0.76 0.61 0.38 0.56 0.57 0.24 0.48 0.57 0.40 0.40 0.36 0.39 0.40 0.47 0.44 0.33 0.20 0.17 0.19 0.22 0.25 0.29 0.34 0.36 0.33 0.29 0.28 0.36 0.42 0.44 0.39 0.37 0.34 0.30 0.39 0.42 0.48 0.54 0.55 0.60 0.57 0.63 0.58 0.63 0.74 0.79 0.75 0.69 0.75 0.77 0.76 0.80 0.81 0.75 0.86 0.87 0.86 0.88 0.99 0.99 1.03 1.02 1.02 1.01 1.02 1.09 1.04
0.54 0.52 0.50 0.50 0.49 0.48 0.47 0.44 0.43 0.41 0.42 0.45 0.44 0.41 0.39 0.50 0.65 0.74 0.80 0.84 0.89 0.73 0.60 0.62 0.60 0.48 0.36 0.45 0.36 0.33 0.45 0.40 0.33 0.32 0.39 0.40 0.36 0.24 0.19 0.17 0.22 0.25 0.27 0.28 0.30 0.27 0.30 0.31 0.34 0.35 0.38 0.36 0.34 0.33 0.28 0.32 0.39 0.45 0.48 0.51 0.57 0.63 0.66 0.65 0.60 0.69 0.74 0.75 0.68 0.69 0.77 0.82 0.85 0.88 0.82 0.80 0.90 0.87 0.82 0.86 0.97 0.96 0.98 0.99 1.01 1.04 1.08 1.07
0.53 0.52 0.51 0.50 0.49 0.48 0.47 0.45 0.42 0.41 0.40 0.44 0.45 0.41 0.48 0.65 0.81 0.89 0.87 0.78 0.62 0.56 0.29 0.30 0.36 0.20 0.24 0.36 0.43 0.45 0.47 0.45 0.30 0.31 0.33 0.35 0.32 0.30 0.21 0.20 0.24 0.24 0.23 0.23 0.24 0.27 0.32 0.31 0.33 0.35 0.31 0.31 0.30 0.30 0.28 0.39 0.43 0.45 0.49 0.50 0.59 0.56 0.59 0.61 0.72 0.75 0.73 0.71 0.69 0.64 0.68 0.74 0.82 0.88 0.86 0.79 0.84 0.84 0.80 0.83 0.90 0.91 0.92 0.97 0.99 1.02 1.06 1.06
0.50 0.50 0.51 0.51 0.49 0.49 0.47 0.44 0.42 0.40 0.40 0.40 0.39 0.38 0.42 0.43 0.54 0.68 0.76 0.72 0.54 0.44 0.40 0.41 0.44 0.43 0.45 0.47 0.47 0.52 0.57 0.40 0.23 0.30 0.36 0.37 0.32 0.29 0.22 0.20 0.22 0.24 0.23 0.20 0.22 0.27 0.33 0.29 0.27 0.28 0.30 0.31 0.31 0.31 0.34 0.43 0.46 0.50 0.50 0.49 0.53 0.56 0.59 0.63 0.67 0.78 0.77 0.70 0.69 0.66 0.71 0.77 0.82 0.85 0.86 0.84 0.85 0.85 0.80 0.80 0.86 0.89 0.87 0.90 0.97 0.98 1.02 1.06
0.47 0.47 0.48 0.50 0.50 0.49 0.47 0.43 0.41 0.38 0.39 0.41 0.41 0.35 0.28 0.34 0.29 0.29 0.43 0.46 0.51 0.52 0.47 0.46 0.50 0.46 0.45 0.50 0.57 0.49 0.34 0.29 0.30 0.30 0.34 0.38 0.34 0.29 0.23 0.20 0.20 0.18 0.20 0.22 0.21 0.26 0.31 0.28 0.27 0.30 0.31 0.32 0.32 0.35 0.36 0.37 0.48 0.47 0.47 0.44 0.48 0.52 0.52 0.57 0.63 0.73 0.74 0.66 0.67 0.70 0.67 0.76 0.80 0.81 0.88 0.88 0.86 0.86 0.82 0.83 0.80 0.86 0.88 0.92 0.91 0.94 0.99 1.05
0.47 0.46 0.46 0.47 0.49 0.49 0.47 0.42 0.39 0.37 0.40 0.48 0.46 0.35 0.38 0.42 0.47 0.52 0.44 0.30 0.38 0.48 0.50 0.45 0.50 0.47 0.54 0.54 0.56 0.59 0.39 0.28 0.28 0.32 0.35 0.32 0.31 0.23 0.23 0.19 0.18 0.16 0.19 0.21 0.21 0.24 0.25 0.24 0.26 0.31 0.31 0.31 0.33 0.33 0.35 0.36 0.37 0.40 0.44 0.43 0.44 0.45 0.50 0.58 0.63 0.69 0.72 0.63 0.62 0.69 0.65 0.73 0.79 0.82 0.90 0.89 0.87 0.92 0.90 0.84 0.82 0.82 0.83 0.89 0.90 0.94 0.97 1.03
0.48 0.46 0.45 0.45 0.46 0.49 0.47 0.42 0.37 0.37 0.48 0.48 0.42 0.45 0.47 0.50 0.57 0.59 0.49 0.38 0.34 0.43 0.43 0.38 0.33 0.38 0.43 0.47 0.51 0.58 0.35 0.32 0.27 0.30 0.30 0.25 0.26 0.22 0.22 0.16 0.16 0.16 0.17 0.17 0.17 0.21 0.23 0.23 0.27 0.29 0.31 0.28 0.31 0.31 0.33 0.36 0.36 0.35 0.36 0.41 0.41 0.44 0.43 0.44 0.58 0.60 0.69 0.63 0.62 0.66 0.65 0.70 0.84 0.88 0.90 0.92 0.88 0.92 0.95 0.93 0.87 0.86 0.82 0.84 0.87 0.96 1.00 0.97
0.48 0.48 0.46 0.44 0.44 0.46 0.48 0.41 0.37 0.46 0.46 0.43 0.42 0.44 0.49 0.54 0.55 0.54 0.44 0.39 0.33 0.32 0.35 0.36 0.36 0.33 0.37 0.40 0.50 0.47 0.32 0.35 0.32 0.29 0.34 0.25 0.24 0.24 0.19 0.15 0.15 0.14 0.14 0.16 0.19 0.21 0.24 0.26 0.27 0.31 0.31 0.28 0.26 0.29 0.31 0.31 0.31 0.33 0.33 0.33 0.33 0.38 0.43 0.42 0.52 0.57 0.63 0.62 0.69 0.67 0.63 0.62 0.70 0.73 0.80 0.89 0.93 0.92 0.93 0.95 0.94 0.92 0.87 0.87 0.94 0.99 1.00 0.98
0.49 0.48 0.47 0.45 0.41 0.47 0.45 0.42 0.39 0.38 0.41 0.41 0.40 0.44 0.44 0.42 0.52 0.55 0.44 0.37 0.35 0.26 0.33 0.34 0.33 0.35 0.39 0.52 0.55 0.35 0.34 0.40 0.37 0.34 0.33 0.27 0.25 0.24 0.20 0.17 0.15 0.13 0.15 0.18 0.22 0.23 0.25 0.29 0.29 0.29 0.30 0.28 0.26 0.25 0.29 0.30 0.28 0.29 0.32 0.33 0.32 0.36 0.43 0.50 0.56 0.51 0.50 0.52 0.58 0.60 0.49 0.50 0.64 0.71 0.73 0.83 0.86 0.87 0.94 0.92 0.93 0.97 0.95 0.93 0.93 0.93 0.98 1.00
0.49 0.48 0.47 0.45 0.43 0.43 0.45 0.36 0.46 0.40 0.37 0.35 0.36 0.37 0.40 0.48 0.51 0.52 0.42 0.30 0.19 0.23 0.31 0.25 0.30 0.23 0.40 0.41 0.47 0.43 0.45 0.36 0.41 0.35 0.32 0.28 0.31 0.27 0.24 0.16 0.15 0.14 0.17 0.18 0.20 0.22 0.25 0.29 0.29 0.28 0.27 0.27 0.25 0.25 0.27 0.28 0.26 0.25 0.28 0.33 0.31 0.32 0.33 0.49 0.49 0.47 0.41 0.38 0.50 0.57 0.41 0.43 0.61 0.62 0.69 0.77 0.77 0.78 0.87 0.89 0.95 1.00 0.99 0.98 0.97 0.96 0.97 0.98
0.50 0.48 0.47 0.46 0.44 0.44 0.33 0.30 0.37 0.35 0.28 0.30 0.35 0.42 0.46 0.51 0.61 0.55 0.37 0.28 0.21 0.29 0.24 0.31 0.23 0.25 0.27 0.40 0.40 0.42 0.28 0.29 0.41 0.39 0.31 0.30 0.27 0.32 0.23 0.17 0.16 0.18 0.19 0.20 0.19 0.19 0.25 0.29 0.27 0.29 0.28 0.28 0.25 0.23 0.26 0.27 0.27 0.24 0.28 0.29 0.30 0.32 0.30 0.43 0.43 0.40 0.40 0.45 0.49 0.54 0.49 0.43 0.47 0.57 0.66 0.74 0.75 0.75 0.79 0.83 0.89 0.97 0.99 0.99 0.98 1.01 1.00 1.00
0.52 0.49 0.47 0.46 0.44 0.44 0.39 0.46 0.40 0.30 0.27 0.35 0.44 0.48 0.51 0.55 0.57 0.56 0.32 0.16 0.13 0.34 0.32 0.25 0.27 0.41 0.33 0.41 0.41 0.35 0.32 0.36 0.27 0.32 0.32 0.29 0.27 0.26 0.24 0.19 0.16 0.16 0.19 0.20 0.15 0.18 0.23 0.27 0.29 0.27 0.26 0.26 0.25 0.24 0.26 0.27 0.24 0.22 0.27 0.29 0.31 0.30 0.29 0.32 0.40 0.39 0.42 0.41 0.37 0.44 0.52 0.45 0.44 0.55 0.67 0.72 0.68 0.70 0.72 0.78 0.82 0.88 0.92 0.98 0.98 1.02 1.06 1.07
0.52 0.51 0.48 0.46 0.45 0.41 0.49 0.51 0.44 0.32 0.36 0.41 0.45 0.48 0.49 0.51 0.51 0.39 0.30 0.17 0.34 0.44 0.45 0.28 0.39 0.37 0.35 0.40 0.37 0.37 0.33 0.36 0.25 0.29 0.32 0.30 0.27 0.25 0.20 0.22 0.19 0.19 0.22 0.22 0.18 0.20 0.22 0.27 0.30 0.32 0.29 0.24 0.26 0.27 0.27 0.27 0.23 0.24 0.26 0.28 0.29 0.29 0.29 0.30 0.45 0.44 0.44 0.42 0.35 0.40 0.43 0.36 0.42 0.55 0.62 0.70 0.67 0.67 0.71 0.78 0.83 0.87 0.90 0.94 0.97 1.02 1.06 1.08
0.52 0.51 0.50 0.48 0.44 0.38 0.41 0.48 0.38 0.41 0.41 0.42 0.45 0.44 0.44 0.45 0.41 0.26 0.24 0.12 0.38 0.38 0.36 0.37 0.32 0.29 0.32 0.31 0.33 0.35 0.30 0.32 0.30 0.32 0.30 0.25 0.27 0.26 0.25 0.28 0.24 0.23 0.23 0.24 0.22 0.23 0.24 0.29 0.32 0.33 0.30 0.29 0.27 0.28 0.28 0.27 0.26 0.29 0.28 0.26 0.27 0.28 0.27 0.28 0.30 0.36 0.38 0.30 0.31 0.40 0.43 0.40 0.36 0.50 0.54 0.56 0.57 0.65 0.70 0.76 0.83 0.87 0.89 0.92 0.95 0.99 1.07 1.11
0.49 0.50 0.49 0.52 0.39 0.40 0.39 0.30 0.33 0.42 0.46 0.45 0.38 0.40 0.41 0.37 0.28 0.23 0.16 0.16 0.31 0.38 0.40 0.37 0.33 0.35 0.28 0.28 0.29 0.33 0.30 0.31 0.27 0.30 0.28 0.28 0.26 0.24 0.25 0.25 0.28 0.24 0.23 0.23 0.21 0.23 0.24 0.28 0.31 0.32 0.36 0.35 0.30 0.29 0.29 0.28 0.27 0.28 0.27 0.27 0.28 0.28 0.30 0.28 0.27 0.28 0.22 0.24 0.29 0.32 0.32 0.41 0.29 0.46 0.57 0.58 0.61 0.64 0.67 0.68 0.72 0.78 0.81 0.86 0.91 0.98 1.08 1.14
0.45 0.47 0.48 0.48 0.45 0.48 0.32 0.27 0.31 0.36 0.34 0.33 0.37 0.34 0.33 0.23 0.30 0.19 0.15 0.37 0.21 0.30 0.31 0.35 0.36 0.34 0.29 0.30 0.30 0.30 0.28 0.29 0.28 0.28 0.28 0.27 0.25 0.21 0.22 0.21 0.22 0.18 0.18 0.19 0.17 0.23 0.22 0.24 0.29 0.32 0.35 0.33 0.27 0.25 0.26 0.26 0.27 0.26 0.26 0.24 0.24 0.27 0.27 0.23 0.24 0.21 0.21 0.20 0.26 0.29 0.29 0.28 0.29 0.37 0.51 0.59 0.61 0.64 0.70 0.70 0.69 0.73 0.79 0.83 0.89 0.96 1.04 1.12
0.43 0.43 0.45 0.44 0.46 0.41 0.39 0.34 0.33 0.35 0.36 0.36 0.38 0.36 0.27 0.20 0.16 0.21 0.17 0.29 0.33 0.32 0.32 0.31 0.34 0.34 0.33 0.30 0.29 0.32 0.34 0.26 0.27 0.27 0.30 0.30 0.27 0.22 0.23 0.23 0.26 0.23 0.18 0.20 0.19 0.20 0.21 0.25 0.26 0.29 0.31 0.28 0.26 0.23 0.23 0.21 0.24 0.25 0.22 0.22 0.20 0.22 0.23 0.21 0.23 0.24 0.24 0.26 0.27 0.26 0.30 0.26 0.36 0.41 0.53 0.55 0.61 0.68 0.70 0.72 0.73 0.72 0.74 0.81 0.87 0.94 1.00 1.04
0.41 0.40 0.38 0.39 0.46 0.43 0.38 0.41 0.41 0.42 0.37 0.34 0.35 0.30 0.25 0.18 0.15 0.27 0.20 0.25 0.32 0.34 0.36 0.35 0.36 0.33 0.32 0.29 0.31 0.34 0.30 0.28 0.26 0.25 0.27 0.28 0.27 0.23 0.21 0.24 0.28 0.27 0.24 0.23 0.18 0.19 0.17 0.19 0.23 0.25 0.23 0.26 0.24 0.23 0.24 0.23 0.22 0.24 0.24 0.23 0.24 0.25 0.25 0.23 0.24 0.21 0.22 0.23 0.28 0.32 0.29 0.28 0.29 0.35 0.46 0.60 0.64 0.69 0.75 0.77 0.75 0.74 0.75 0.78 0.86 0.92 0.97 0.99
0.40 0.37 0.39 0.40 0.42 0.43 0.41 0.41 0.44 0.46 0.40 0.30 0.26 0.25 0.18 0.16 0.20 0.17 0.18 0.26 0.34 0.41 0.37 0.44 0.33 0.33 0.31 0.31 0.34 0.35 0.31 0.24 0.25 0.25 0.25 0.26 0.24 0.24 0.21 0.21 0.27 0.28 0.27 0.21 0.21 0.21 0.20 0.20 0.24 0.27 0.25 0.25 0.23 0.25 0.26 0.24 0.20 0.24 0.25 0.26 0.26 0.26 0.30 0.25 0.30 0.26 0.29 0.29 0.26 0.32 0.34 0.39 0.36 0.48 0.50 0.53 0.65 0.73 0.75 0.72 0.77 0.80 0.83 0.85 0.86 0.87 0.88 0.93
0.36 0.30 0.40 0.35 0.37 0.38 0.41 0.43 0.48 0.48 0.39 0.29 0.24 0.20 0.17 0.19 0.16 0.20 0.18 0.32 0.36 0.40 0.44 0.48 0.42 0.31 0.30 0.30 0.32 0.32 0.34 0.24 0.23 0.24 0.24 0.26 0.26 0.23 0.24 0.22 0.25 0.26 0.25 0.20 0.22 0.19 0.21 0.19 0.25 0.27 0.27 0.26 0.26 0.28 0.24 0.26 0.20 0.26 0.26 0.23 0.24 0.30 0.31 0.27 0.32 0.35 0.36 0.35 0.33 0.38 0.35 0.40 0.48 0.48 0.50 0.53 0.60 0.65 0.67 0.72 0.76 0.79 0.84 0.86 0.85 0.84 0.86 0.90
0.29 0.34 0.28 0.33 0.38 0.42 0.45 0.47 0.50 0.43 0.40 0.30 0.23 0.18 0.21 0.22 0.22 0.22 0.23 0.30 0.37 0.47 0.42 0.35 0.36 0.30 0.29 0.28 0.30 0.31 0.31 0.26 0.24 0.22 0.22 0.26 0.24 0.24 0.22 0.22 0.23 0.25 0.26 0.25 0.22 0.24 0.20 0.18 0.25 0.24 0.22 0.28 0.29 0.27 0.25 0.25 0.26 0.29 0.25 0.27 0.30 0.32 0.33 0.31 0.27 0.31 0.30 0.29 0.31 0.33 0.31 0.33 0.37 0.36 0.52 0.51 0.53 0.57 0.64 0.66 0.66 0.70 0.75 0.76 0.79 0.82 0.85 0.87
0.32 0.31 0.34 0.33 0.31 0.37 0.47 0.54 0.52 0.43 0.35 0.29 0.22 0.21 0.24 0.21 0.24 0.22 0.22 0.34 0.38 0.41 0.40 0.37 0.41 0.38 0.31 0.29 0.28 0.29 0.31 0.23 0.23 0.24 0.22 0.25 0.22 0.26 0.23 0.21 0.22 0.22 0.25 0.27 0.24 0.23 0.21 0.18 0.21 0.27 0.28 0.31 0.30 0.25 0.25 0.28 0.30 0.29 0.29 0.35 0.29 0.24 0.22 0.27 0.25 0.23 0.27 0.27 0.29 0.29 0.30 0.32 0.34 0.36 0.44 0.47 0.48 0.49 0.50 0.57 0.59 0.62 0.66 0.72 0.78 0.81 0.83 0.90
0.34 0.34 0.24 0.35 0.45 0.44 0.46 0.56 0.51 0.39 0.32 0.24 0.20 0.20 0.22 0.23 0.23 0.22 0.24 0.34 0.40 0.40 0.36 0.38 0.38 0.42 0.38 0.33 0.30 0.31 0.30 0.23 0.24 0.23 0.23 0.26 0.23 0.27 0.25 0.23 0.21 0.21 0.23 0.27 0.25 0.26 0.24 0.20 0.23 0.30 0.29 0.32 0.29 0.25 0.22 0.25 0.32 0.32 0.32 0.32 0.33 0.30 0.26 0.26 0.27 0.28 0.28 0.28 0.28 0.28 0.32 0.32 0.47 0.44 0.45 0.46 0.48 0.49 0.50 0.55 0.61 0.65 0.72 0.75 0.75 0.77 0.78 0.85
0.27 0.23 0.20 0.41 0.58 0.54 0.52 0.55 0.47 0.38 0.30 0.22 0.21 0.20 0.23 0.22 0.23 0.24 0.25 0.33 0.38 0.40 0.38 0.38 0.42 0.44 0.41 0.39 0.33 0.29 0.30 0.27 0.24 0.24 0.25 0.28 0.26 0.30 0.26 0.26 0.21 0.22 0.20 0.23 0.25 0.27 0.24 0.25 0.23 0.30 0.34 0.31 0.24 0.26 0.25 0.27 0.25 0.26 0.26 0.28 0.29 0.29 0.34 0.30 0.32 0.26 0.25 0.24 0.24 0.24 0.27 0.36 0.46 0.53 0.50 0.50 0.51 0.52 0.53 0.55 0.62 0.66 0.69 0.73 0.78 0.81 0.84 0.87
0.33 0.23 0.27 0.51 0.59 0.58 0.60 0.54 0.41 0.32 0.29 0.29 0.27 0.22 0.23 0.21 0.24 0.24 0.26 0.33 0.37 0.41 0.39 0.39 0.41 0.41 0.44 0.41 0.38 0.33 0.30 0.29 0.26 0.24 0.25 0.25 0.25 0.23 0.27 0.26 0.24 0.21 0.22 0.21 0.24 0.25 0.23 0.25 0.25 0.29 0.29 0.27 0.27 0.29 0.30 0.32 0.31 0.27 0.26 0.26 0.28 0.28 0.27 0.22 0.22 0.30 0.28 0.25 0.24 0.24 0.28 0.39 0.51 0.61 0.59 0.58 0.58 0.58 0.62 0.61 0.63 0.65 0.66 0.71 0.73 0.77 0.77 0.81
0.26 0.16 0.36 0.65 0.65 0.64 0.54 0.39 0.39 0.38 0.34 0.29 0.25 0.24 0.21 0.26 0.25 0.23 0.25 0.32 0.39 0.40 0.42 0.42 0.45 0.45 0.47 0.46 0.46 0.35 0.32 0.29 0.28 0.24 0.25 0.24 0.28 0.26 0.28 0.29 0.26 0.24 0.21 0.19 0.21 0.25 0.25 0.27 0.29 0.28 0.28 0.28 0.30 0.32 0.33 0.34 0.33 0.30 0.28 0.26 0.28 0.28 0.26 0.26 0.23 0.26 0.29 0.29 0.30 0.32 0.34 0.37 0.55 0.58 0.58 0.60 0.62 0.62 0.63 0.62 0.62 0.62 0.65 0.68 0.71 0.74 0.75 0.80
0.26 0.21 0.49 0.62 0.61 0.74 0.52 0.45 0.43 0.34 0.30 0.32 0.34 0.29 0.28 0.27 0.25 0.26 0.25 0.31 0.35 0.41 0.39 0.39 0.42 0.43 0.45 0.46 0.47 0.45 0.42 0.43 0.41 0.27 0.27 0.26 0.26 0.27 0.28 0.28 0.28 0.24 0.21 0.19 0.23 0.26 0.29 0.25 0.27 0.30 0.32 0.32 0.34 0.35 0.35 0.34 0.32 0.29 0.28 0.29 0.28 0.26 0.27 0.28 0.29 0.33 0.30 0.33 0.29 0.31 0.30 0.39 0.57 0.62 0.60 0.59 0.59 0.60 0.61 0.60 0.62 0.62 0.64 0.68 0.74 0.73 0.75 0.77
0.26 0.24 0.39 0.53 0.60 0.61 0.55 0.40 0.39 0.36 0.35 0.35 0.32 0.28 0.31 0.28 0.26 0.25 0.23 0.29 0.36 0.38 0.38 0.41 0.47 0.49 0.48 0.51 0.49 0.44 0.47 0.40 0.46 0.46 0.30 0.29 0.27 0.30 0.28 0.27 0.27 0.25 0.20 0.19 0.20 0.26 0.23 0.28 0.29 0.31 0.30 0.29 0.31 0.33 0.32 0.33 0.31 0.28 0.26 0.28 0.29 0.29 0.30 0.32 0.32 0.37 0.28 0.33 0.32 0.30 0.30 0.34 0.50 0.59 0.57 0.56 0.55 0.53 0.55 0.56 0.62 0.63 0.67 0.69 0.70 0.70 0.81 0.86
0.32 0.34 0.41 0.51 0.63 0.56 0.46 0.52 0.47 0.44 0.40 0.37 0.33 0.29 0.28 0.27 0.28 0.27 0.26 0.28 0.38 0.40 0.37 0.39 0.44 0.49 0.50 0.53 0.48 0.46 0.47 0.44 0.43 0.45 0.46 0.38 0.29 0.29 0.27 0.28 0.29 0.25 0.24 0.25 0.24 0.29 0.24 0.31 0.28 0.25 0.26 0.24 0.24 0.25 0.25 0.26 0.27 0.30 0.30 0.28 0.29 0.28 0.28 0.28 0.25 0.30 0.28 0.36 0.35 0.34 0.38 0.47 0.52 0.55 0.53 0.54 0.55 0.55 0.58 0.63 0.65 0.67 0.70 0.71 0.70 0.69 0.77 0.88
0.32 0.19 0.35 0.52 0.54 0.58 0.50 0.57 0.54 0.47 0.41 0.40 0.35 0.31 0.31 0.27 0.28 0.29 0.28 0.26 0.36 0.42 0.37 0.39 0.46 0.52 0.49 0.48 0.44 0.43 0.43 0.46 0.45 0.41 0.42 0.44 0.32 0.28 0.28 0.28 0.30 0.30 0.29 0.27 0.29 0.28 0.25 0.30 0.32 0.31 0.29 0.28 0.30 0.33 0.37 0.34 0.31 0.28 0.28 0.28 0.27 0.29 0.29 0.27 0.28 0.27 0.26 0.33 0.30 0.36 0.39 0.47 0.47 0.50 0.52 0.52 0.55 0.57 0.59 0.65 0.68 0.69 0.70 0.73 0.75 0.76 0.80 0.84
0.42 0.28 0.41 0.32 0.46 0.49 0.48 0.51 0.48 0.48 0.40 0.43 0.37 0.39 0.36 0.32 0.30 0.29 0.32 0.25 0.30 0.36 0.36 0.36 0.44 0.47 0.48 0.47 0.43 0.42 0.43 0.42 0.46 0.45 0.43 0.46 0.53 0.51 0.52 0.32 0.29 0.32 0.33 0.32 0.34 0.29 0.28 0.27 0.32 0.34 0.33 0.33 0.36 0.36 0.37 0.37 0.33 0.32 0.31 0.29 0.28 0.28 0.29 0.27 0.25 0.24 0.31 0.32 0.28 0.42 0.40 0.39 0.43 0.50 0.54 0.53 0.54 0.57 0.59 0.61 0.65 0.67 0.69 0.69 0.73 0.80 0.85 0.86
0.33 0.48 0.48 0.48 0.38 0.38 0.39 0.46 0.54 0.53 0.49 0.42 0.36 0.39 0.36 0.38 0.37 0.30 0.32 0.29 0.30 0.34 0.32 0.40 0.43 0.48 0.49 0.48 0.48 0.41 0.39 0.40 0.43 0.43 0.46 0.52 0.49 0.52 0.44 0.46 0.31 0.31 0.34 0.35 0.41 0.32 0.30 0.27 0.33 0.33 0.32 0.33 0.35 0.35 0.35 0.35 0.35 0.35 0.35 0.35 0.31 0.29 0.27 0.27 0.29 0.30 0.33 0.30 0.29 0.41 0.41 0.38 0.42 0.46 0.50 0.52 0.54 0.55 0.58 0.60 0.63 0.68 0.73 0.74 0.77 0.80 0.85 0.87
0.46 0.39 0.38 0.50 0.40 0.44 0.46 0.50 0.56 0.55 0.53 0.52 0.48 0.39 0.34 0.36 0.37 0.39 0.40 0.43 0.36 0.31 0.35 0.32 0.37 0.44 0.46 0.49 0.46 0.42 0.42 0.38 0.39 0.45 0.50 0.50 0.54 0.48 0.40 0.41 0.40 0.50 0.32 0.31 0.36 0.38 0.31 0.28 0.31 0.31 0.30 0.31 0.33 0.33 0.34 0.33 0.33 0.36 0.36 0.36 0.34 0.33 0.31 0.29 0.29 0.33 0.38 0.37 0.39 0.44 0.44 0.41 0.46 0.48 0.51 0.55 0.57 0.58 0.59 0.65 0.66 0.70 0.77 0.78 0.78 0.81 0.87 0.91
0.35 0.32 0.25 0.35 0.42 0.44 0.50 0.54 0.55 0.52 0.48 0.54 0.46 0.42 0.38 0.34 0.35 0.41 0.46 0.46 0.45 0.39 0.41 0.37 0.35 0.38 0.42 0.46 0.47 0.42 0.44 0.51 0.55 0.44 0.54 0.53 0.51 0.51 0.49 0.52 0.50 0.46 0.42 0.28 0.31 0.36 0.32 0.30 0.30 0.30 0.28 0.30 0.32 0.34 0.33 0.33 0.33 0.32 0.35 0.35 0.35 0.35 0.32 0.32 0.30 0.30 0.34 0.35 0.43 0.43 0.42 0.41 0.50 0.54 0.55 0.60 0.59 0.62 0.64 0.63 0.63 0.66 0.68 0.71 0.75 0.79 0.84 0.89
0.46 0.48 0.39 0.27 0.31 0.42 0.51 0.51 0.51 0.53 0.50 0.51 0.51 0.45 0.41 0.37 0.33 0.40 0.48 0.59 0.55 0.54 0.50 0.40 0.39 0.40 0.42 0.42 0.45 0.46 0.58 0.57 0.58 0.62 0.61 0.59 0.49 0.54 0.52 0.53 0.51 0.43 0.40 0.39 0.31 0.37 0.33 0.33 0.33 0.31 0.27 0.26 0.30 0.32 0.32 0.32 0.32 0.32 0.33 0.35 0.35 0.36 0.37 0.38 0.35 0.35 0.33 0.32 0.34 0.43 0.41 0.41 0.51 0.57 0.60 0.63 0.63 0.62 0.61 0.63 0.64 0.66 0.69 0.69 0.69 0.69 0.68 0.73
0.44 0.51 0.48 0.36 0.27 0.43 0.45 0.49 0.55 0.56 0.48 0.53 0.57 0.59 0.58 0.53 0.55 0.56 0.47 0.58 0.62 0.62 0.62 0.55 0.44 0.41 0.42 0.42 0.42 0.55 0.61 0.63 0.63 0.71 0.69 0.66 0.63 0.61 0.61 0.61 0.56 0.49 0.46 0.47 0.38 0.35 0.34 0.32 0.31 0.31 0.27 0.27 0.30 0.32 0.29 0.28 0.29 0.29 0.30 0.32 0.34 0.37 0.39 0.42 0.42 0.40 0.37 0.37 0.36 0.34 0.39 0.50 0.56 0.62 0.62 0.64 0.64 0.64 0.64 0.64 0.69 0.73 0.76 0.80 0.77 0.77 0.73 0.75
Wind_Speed
15 15 15 15 15 15 15 15 14 14 14 14 14 14 14 15 15 14 14 14 14 14 14 13 13 12 12 11 11 11 10 9 8 8 8 9 10 10 10 10 10 11 11 10 9 8 7 7 7 6 7 7 7 4 2 2 2 2 2 2 2 5 3 0 3 5 6 6 7 7 8 7 7 8 7 7 8 10 11 10 11 11 12 13 15 16 15 15
16 16 16 16 16 16 16 15 15 15 15 15 14 14 15 15 15 15 15 14 14 14 14 13 12 11 11 11 10 10 9 8 8 9 10 11 11 11 11 11 11 12 11 10 10 9 9 8 7 7 8 6 4 3 1 1 2 2 2 2 3 4 2 2 6 6 6 7 6 7 8 7 6 7 6 6 9 10 11 11 13 13 13 14 15 15 15 15
16 16 17 17 17 16 16 16 16 16 16 15 15 15 15 15 15 15 15 14 14 14 14 13 12 11 10 10 9 9 8 7 7 8 9 9 12 13 12 12 12 12 12 11 10 10 10 9 7 6 7 6 4 4 4 3 2 2 2 3 3 5 5 5 7 7 7 7 7 7 8 7 6 6 5 7 10 9 9 10 12 13 13 14 14 15 15 14
17 17 17 17 17 17 17 17 17 17 16 16 16 16 15 15 15 16 15 15 15 14 13 12 11 10 9 9 9 8 7 6 6 5 5 6 11 13 13 13 12 12 12 11 11 11 10 8 7 6 7 6 5 5 4 2 2 2 4 4 4 5 6 7 7 7 8 8 7 7 8 7 7 6 6 8 8 7 7 9 11 12 14 14 13 14 13 13
18 18 18 18 18 18 18 18 18 17 17 17 16 16 16 16 15 16 15 15 15 14 13 12 10 9 8 8 8 7 5 4 3 3 3 4 10 13 14 14 13 12 12 11 11 11 10 8 7 6 6 5 5 3 3 3 2 3 4 5 6 5 6 8 8 7 7 7 7 8 9 8 7 7 6 7 6 6 8 10 11 12 13 14 13 13 12 12
18 18 18 18 18 18 18 18 18 18 18 18 17 17 16 16 16 16 15 15 15 14 13 11 10 9 8 8 7 6 4 3 2 2 2 3 9 12 13 14 13 12 12 12 12 11 10 9 8 6 5 4 4 3 4 4 2 3 4 5 6 7 7 7 8 7 7 8 8 8 8 8 7 6 7 6 5 7 10 11 12 12 12 13 12 12 12 11
19 19 19 19 19 19 19 19 19 19 19 18 18 17 17 17 17 16 16 15 15 14 13 11 10 9 9 8 7 6 5 7 6 4 2 4 8 11 13 14 14 13 13 13 14 13 10 10 9 8 5 4 4 5 5 4 4 4 4 5 7 7 6 6 7 8 8 8 8 8 7 7 6 5 7 7 7 10 12 11 11 11 11 11 11 11 11 10
19 19 19 20 20 19 19 19 19 19 19 19 19 18 18 18 17 17 16 15 15 14 13 12 11 10 9 8 7 7 7 9 9 5 3 6 9 10 13 14 14 14 14 14 15 14 12 11 10 7 5 4 3 4 5 4 4 4 4 6 7 7 7 6 7 8 8 8 9 8 8 7 7 7 7 7 9 12 11 11 11 10 10 10 10 10 10 9
19 19 19 20 20 20 20 20 20 20 20 20 20 19 19 18 18 18 17 16 15 14 13 12 11 11 9 8 7 7 8 9 8 6 5 7 9 11 13 14 15 15 14 15 16 15 13 11 10 7 4 3 5 4 6 4 3 6 6 7 7 7 7 7 7 8 9 9 8 8 7 7 8 8 7 9 11 11 10 10 10 10 10 9 9 9 9 8
19 19 19 20 20 21 21 21 21 20 20 20 20 20 20 19 19 18 18 17 15 14 13 13 12 11 10 9 8 8 8 7 7 8 8 8 10 11 14 15 16 16 15 15 16 16 14 11 8 6 3 3 4 3 5 6 6 8 8 6 7 7 7 8 9 10 10 9 8 7 7 8 7 7 7 9 10 10 10 9 9 10 9 9 8 8 8 8
20 20 20 20 20 21 21 22 21 21 21 21 21 21 21 20 20 19 18 17 16 15 14 13 13 11 10 10 9 10 9 7 6 8 8 9 11 12 14 16 17 17 16 16 17 16 14 11 7 5 2 3 5 3 5 9 9 7 8 7 7 7 8 9 8 9 8 7 8 8 8 9 7 6 7 8 9 9 10 9 9 9 8 8 8 8 7 7
21 20 20 20 21 21 21 22 22 22 22 22 21 21 21 21 21 20 19 18 17 16 14 14 13 12 11 11 12 13 11 8 7 8 7 8 10 12 15 17 18 18 17 17 17 16 15 12 9 6 4 4 5 5 6 10 9 8 9 9 8 7 7 7 7 9 8 7 10 10 8 7 6 6 7 8 9 10 9 9 9 8 7 8 8 8 7 6
21 21 21 21 21 21 22 22 22 23 22 22 22 22 22 22 21 21 20 19 18 17 15 14 14 12 11 12 13 14 13 11 9 9 9 9 9 12 15 16 18 18 18 18 16 16 15 12 10 9 7 6 5 7 7 8 10 10 9 8 8 7 6 6 8 9 8 9 11 9 6 6 5 6 7 8 9 10 9 9 9 8 7 8 8 7 5 6
22 22 22 22 22 22 22 22 23 23 23 23 23 23 22 22 22 21 20 20 19 18 16 15 14 13 12 13 14 14 15 13 12 12 11 11 10 12 15 16 18 19 19 19 17 16 14 12 11 10 8 8 6 8 7 7 12 11 8 7 7 8 6 7 8 7 7 9 10 7 4 5 5 6 7 8 9 9 8 9 9 8 8 7 7 7 5 5
22 23 22 22 22 22 22 23 23 23 23 23 23 23 23 23 22 21 21 20 19 19 17 16 15 14 13 14 14 15 16 15 15 14 13 13 12 13 15 17 18 19 19 19 18 16 13 11 11 9 10 10 6 8 7 9 11 9 8 7 8 8 7 8 7 7 7 7 7 5 4 5 4 5 7 7 8 8 8 9 9 8 8 7 7 6 5 6
23 23 23 23 23 23 23 23 23 23 23 24 24 24 23 23 22 21 21 20 20 19 18 16 15 14 13 14 13 14 16 16 16 14 14 14 14 14 15 17 18 19 19 19 18 15 12 10 10 11 12 9 7 8 8 10 10 9 9 9 9 8 6 8 7 7 7 6 5 3 4 5 4 6 7 7 9 8 8 8 8 9 8 7 7 6 6 6
24 24 24 24 24 24 24 24 24 23 23 24 24 24 24 23 22 20 20 20 20 19 19 17 15 14 15 14 13 15 16 16 16 16 15 16 16 15 16 17 18 19 19 19 17 15 12 10 12 12 11 10 9 10 9 11 11 10 9 8 10 9 7 7 8 8 7 6 5 4 5 6 6 7 7 7 9 8 7 8 8 9 7 7 7 6 6 6
24 24 24 24 24 24 24 24 24 23 23 23 23 24 24 22 20 19 19 19 18 18 19 18 16 15 15 15 14 15 17 16 17 18 17 17 17 17 17 18 18 18 18 17 17 16 12 12 13 12 10 10 10 10 12 13 12 11 10 8 10 11 9 9 8 9 7 7 6 4 5 8 7 7 7 8 9 7 7 7 8 8 7 7 7 5 6 6
25 25 25 25 25 25 25 24 24 24 23 22 22 22 22 20 18 17 17 17 17 18 19 20 19 17 16 16 15 15 16 17 17 18 18 18 18 17 17 18 18 18 17 16 16 16 13 11 14 13 12 11 11 11 14 15 13 12 10 9 12 12 10 10 9 10 9 7 7 5 6 8 8 7 7 9 9 8 7 7 7 7 7 7 6 5 6 6
25 25 25 25 25 25 25 25 24 23 23 21 20 18 18 18 17 17 17 18 20 21 22 22 22 22 20 19 17 15 17 18 18 19 19 19 19 18 18 19 18 18 17 16 16 16 14 13 14 15 13 12 12 12 14 16 14 13 11 9 12 13 10 11 10 10 10 8 8 7 6 8 9 8 8 9 9 9 8 7 6 7 7 7 7 6 6 6
26 26 25 25 25 25 25 25 24 23 22 20 18 16 17 18 19 19 19 21 22 23 25 25 25 26 24 23 21 17 17 19 20 20 20 21 20 18 19 19 18 17 18 18 17 15 15 15 15 15 14 13 12 12 14 15 14 14 13 10 12 13 12 12 10 9 10 8 9 9 6 9 10 9 9 9 9 9 9 8 7 7 7 7 7 7 7 6
27 26 26 26 26 26 25 25 24 24 21 18 17 16 16 18 20 22 22 22 23 23 25 26 27 27 26 25 24 21 19 19 21 21 21 22 21 19 19 20 18 18 18 19 17 15 16 17 17 16 15 14 13 13 15 15 14 13 13 12 13 13 11 11 11 10 10 7 8 9 7 8 10 9 10 10 9 10 11 10 9 8 8 8 8 8 8 7
27 26 27 26 26 26 25 25 25 22 18 17 17 17 16 17 19 23 24 23 23 23 24 26 27 27 26 24 23 23 23 21 21 23 23 23 22 21 20 20 19 19 20 20 18 15 16 18 18 17 15 15 14 14 15 15 15 13 12 12 13 14 12 12 12 12 12 9 8 9 6 7 9 9 10 11 10 10 12 12 11 11 10 9 9 9 9 8
27 27 27 26 26 26 25 26 23 19 18 19 19 18 18 18 19 22 23 23 23 23 25 26 27 27 26 24 23 24 26 23 22 23 24 24 23 22 21 20 20 20 20 21 20 17 16 17 19 17 16 16 15 15 16 15 14 14 14 13 12 14 14 14 15 13 12 10 10 9 6 7 9 9 11 11 10 10 12 12 11 12 12 11 11 10 10 10
28 27 27 27 26 26 26 24 20 18 19 20 19 18 18 18 17 18 20 21 22 22 24 26 26 27 27 25 23 24 25 24 24 24 25 26 25 22 21 21 21 21 21 22 21 18 17 18 19 19 18 17 16 16 17 16 14 13 15 14 12 12 12 15 17 14 11 11 13 11 7 9 11 11 11 11 11 11 12 13 12 12 13 12 12 11 12 11
28 27 27 27 26 26 25 21 18 19 20 19 18 18 19 18 17 17 17 19 21 21 22 23 24 25 27 26 24 23 24 24 25 25 26 27 26 23 21 20 20 21 21 21 19 17 17 18 19 19 19 18 17 17 16 16 15 13 13 15 14 12 10 14 18 14 13 13 15 15 10 9 11 12 13 12 12 13 12 13 13 13 13 13 13 13 13 13
28 27 27 27 26 24 22 20 20 21 20 19 19 19 19 18 17 16 15 16 18 18 20 21 21 23 25 26 26 24 23 23 24 27 27 28 28 25 22 20 20 21 20 19 19 18 19 20 20 20 20 18 17 17 16 16 16 13 13 14 15 13 11 15 19 15 12 12 14 16 13 9 12 14 14 13 12 13 13 13 14 14 14 15 14 14 14 14
28 27 27 26 26 24 22 22 22 20 19 19 19 19 18 17 17 15 13 14 14 13 17 19 20 21 22 25 28 26 23 22 23 27 28 29 29 26 23 22 21 22 21 20 20 19 20 21 21 20 20 18 17 17 16 16 16 15 14 13 13 15 13 13 17 15 13 12 14 16 13 9 12 14 13 12 13 13 14 14 14 15 15 16 15 15 15 14
28 28 27 26 26 25 22 22 22 21 20 19 18 18 18 17 16 14 13 14 12 11 14 18 18 19 21 25 28 27 24 23 23 25 28 29 30 28 24 23 22 22 23 22 21 19 20 22 22 20 19 18 17 18 17 15 15 15 15 15 13 15 14 11 13 14 12 11 12 14 15 10 11 14 14 13 14 15 15 14 14 15 16 16 16 16 16 15
29 28 27 26 26 24 22 23 24 21 20 19 19 19 18 17 15 15 15 14 12 10 13 17 17 19 21 23 26 26 25 24 23 25 27 28 30 29 25 23 23 22 22 23 22 21 20 20 22 21 19 18 18 19 18 16 15 14 15 15 14 14 14 12 12 11 9 10 10 12 14 13 11 13 15 15 16 17 15 14 14 15 16 16 16 16 16 15
29 29 28 26 25 24 22 23 22 20 19 20 20 19 18 16 16 16 15 14 13 13 13 15 18 20 22 23 24 24 24 24 24 25 27 27 28 29 26 24 24 22 22 22 23 23 21 20 20 20 20 19 19 19 18 18 17 16 15 14 12 12 12 12 12 11 10 12 12 10 11 14 13 13 17 18 18 17 15 15 15 15 17 17 16 16 16 16
30 30 29 27 26 25 23 23 22 20 20 20 20 19 17 17 18 19 16 13 12 14 14 15 18 20 22 23 23 23 24 24 25 26 27 27 27 28 28 26 24 23 23 23 22 23 23 21 19 19 20 19 19 18 17 17 19 19 17 14 12 11 12 12 12 12 13 14 15 13 12 14 15 15 18 20 18 17 16 16 15 15 16 17 17 16 15 15
30 30 29 27 25 25 25 25 24 22 21 20 19 19 18 18 19 20 19 16 13 12 12 14 17 19 21 23 23 23 24 24 25 26 27 28 27 28 30 29 26 24 22 22 22 22 21 21 21 21 21 20 19 18 17 17 19 19 18 16 13 10 10 11 11 12 13 14 16 16 15 16 16 15 17 19 19 18 17 16 16 16 16 15 16 16 16 15
31 30 28 26 25 25 25 26 24 22 21 20 20 20 21 20 19 19 20 20 17 14 12 12 16 19 21 22 23 23 23 24 26 26 27 29 28 27 30 31 29 25 22 21 23 22 20 20 23 22 21 21 20 18 18 17 19 20 18 17 15 12 10 10 10 11 12 13 14 16 16 15 16 15 14 16 17 16 16 16 16 16 15 14 14 15 15 15
30 29 27 25 25 25 25 25 24 23 21 20 20 22 23 22 20 19 20 20 18 16 15 14 16 20 20 20 22 23 23 23 26 26 27 29 28 28 29 31 31 27 23 22 21 22 21 20 22 23 21 21 21 20 19 18 18 19 18 19 18 15 12 11 11 12 12 11 12 13 14 14 15 14 11 9 11 13 15 15 14 16 15 14 14 14 15 16
28 27 25 24 24 24 24 24 24 23 22 21 22 24 25 22 20 19 19 19 17 15 14 15 17 20 20 19 21 24 24 23 24 26 26 28 29 28 29 29 30 29 26 23 20 20 20 18 19 22 22 20 20 21 22 21 18 16 17 19 19 16 14 12 13 14 12 11 12 13 13 12 11 12 10 8 10 11 12 12 13 15 14 14 15 15 16 16
26 25 24 23 24 24 23 23 23 23 22 22 23 25 24 23 22 21 20 20 19 17 14 14 13 16 19 20 20 23 24 24 24 25 25 27 28 28 29 29 30 31 28 25 21 20 20 18 17 21 22 21 19 20 24 24 19 17 18 18 17 17 18 14 12 13 13 12 12 13 15 12 11 12 12 10 11 10 10 11 13 14 14 14 15 15 16 16
25 24 23 23 23 24 24 23 23 23 22 23 25 25 24 24 23 23 23 22 21 19 18 16 13 13 17 19 20 22 24 24 24 25 25 26 27 28 29 28 30 31 30 27 23 20 19 18 19 22 22 21 19 20 23 25 21 18 19 18 16 17 19 18 14 13 12 12 12 12 14 13 13 14 13 13 12 11 9 9 11 12 12 13 13 13 14 14
23 21 20 19 19 21 23 23 22 23 22 23 25 24 23 23 23 24 25 23 21 20 19 19 17 15 16 18 19 21 23 25 24 24 25 24 25 28 29 27 28 31 31 29 26 22 20 18 18 22 24 20 19 21 23 24 21 18 18 18 16 15 17 18 16 14 12 11 11 11 11 11 12 14 15 15 14 13 11 10 10 11 11 11 11 12 12 12
20 18 18 18 17 18 21 22 22 23 23 24 25 24 23 23 23 25 26 25 23 21 20 21 19 16 16 17 18 19 22 24 25 24 24 25 24 25 28 27 26 29 31 31 29 24 21 19 17 19 24 23 22 23 23 23 21 19 19 19 18 16 15 15 16 16 14 12 11 11 11 12 12 12 12 13 13 13 12 11 10 11 11 11 12 12 13 13
18 16 16 15 15 17 19 21 22 23 23 24 24 24 23 23 22 24 27 27 25 23 22 23 22 19 17 16 16 17 19 21 24 24 23 24 24 23 25 27 26 27 28 30 30 26 22 21 17 17 22 24 24 24 23 22 22 21 20 20 19 17 14 12 13 15 14 12 11 10 11 12 11 10 10 11 11 11 10 10 10 10 10 11 12 12 13 13
17 16 16 13 13 17 18 19 21 22 23 24 24 24 24 23 22 23 25 26 24 23 23 24 23 21 20 18 15 14 15 17 21 24 24 24 25 23 24 27 27 27 27 27 30 29 24 21 19 18 22 23 22 24 24 22 21 22 22 21 20 18 16 13 13 14 14 14 13 10 9 11 11 9 10 9 9 8 8 8 9 10 10 11 11 12 12 13
17 18 20 18 17 19 19 20 21 22 23 24 24 25 24 23 23 23 24 25 23 22 22 23 23 22 22 22 19 16 14 13 17 22 24 25 25 24 24 26 27 27 27 26 27 28 26 23 21 17 19 23 22 22 25 24 21 22 23 22 21 20 19 15 13 13 14 14 13 10 9 12 13 11 10 9 8 8 7 7 8 10 10 10 11 11 12 13
19 19 20 20 19 20 21 21 21 21 22 23 24 25 25 24 24 23 24 25 24 21 21 21 22 21 21 22 22 19 16 14 14 16 19 22 24 25 25 26 27 27 27 26 26 27 26 24 22 16 14 20 22 19 22 25 23 21 21 21 21 22 22 19 14 13 13 15 14 11 11 15 15 13 11 10 9 9 10 10 9 10 11 10 10 11 11 12
19 18 19 19 20 21 22 21 21 22 22 23 24 24 24 24 24 25 26 26 26 23 21 20 19 19 19 21 22 21 18 17 16 14 13 16 21 24 24 26 28 26 27 28 27 27 26 24 23 20 16 18 20 19 21 24 22 20 21 23 22 21 22 21 17 14 14 16 15 12 12 15 15 13 13 12 10 11 12 12 11 12 12 12 11 11 11 11
17 17 18 19 20 21 22 23 23 23 22 22 22 22 23 24 23 25 26 27 28 26 24 22 20 19 19 21 21 21 20 19 18 17 13 10 14 18 20 24 27 26 27 30 29 26 25 25 24 23 22 21 20 18 18 22 22 19 20 24 24 22 20 20 19 18 15 14 15 15 15 16 16 15 15 14 12 11 12 12 12 12 12 12 12 12 12 12
17 17 18 18 19 19 20 22 22 22 23 24 22 21 22 23 22 23 24 25 27 27 25 23 22 21 20 20 20 20 20 19 19 20 16 12 12 15 15 19 25 28 28 29 29 26 23 25 26 24 23 23 21 17 15 19 22 19 18 21 24 23 21 19 21 22 19 15 16 18 18 18 20 19 18 17 15 13 14 13 14 15 15 14 13 13 13 12
18 19 18 18 18 19 18 20 21 22 23 24 23 23 23 23 22 22 22 22 25 26 25 23 24 25 23 21 20 18 18 19 20 20 17 15 14 14 14 16 20 26 29 27 27 26 23 23 26 26 24 24 24 21 17 17 19 19 17 18 23 24 23 22 21 21 20 19 19 20 20 20 21 21 20 19 18 17 17 15 14 15 15 15 14 13 13 13
18 19 19 19 19 20 20 21 22 23 23 22 22 24 25 24 23 22 21 20 21 23 24 25 26 28 26 23 21 19 16 16 19 19 17 16 15 14 15 16 14 19 26 27 25 25 24 23 24 24 24 25 26 25 22 19 18 18 17 17 19 22 22 23 21 19 19 18 18 19 20 20 21 21 21 21 19 18 17 16 15 13 13 14 15 15 16 16
17 19 20 21 21 22 21 21 21 21 21 21 21 22 24 25 24 23 22 20 19 19 22 25 28 28 28 26 24 21 17 14 15 18 18 18 17 16 16 15 13 14 20 25 25 24 25 26 25 23 22 23 24 25 26 24 21 20 20 18 17 18 19 20 21 21 21 20 18 18 20 20 20 20 20 20 18 17 16 16 16 15 15 15 16 17 18 19
18 19 20 21 22 21 20 20 20 20 20 19 20 20 22 23 23 23 23 21 19 18 19 23 27 27 28 28 26 22 19 16 15 16 18 19 19 19 17 14 13 14 15 20 24 25 25 25 25 23 21 21 22 23 25 27 24 23 23 22 19 18 18 18 18 19 21 20 19 19 20 20 20 18 17 17 16 16 16 16 16 16 16 16 18 19 19 20
19 19 19 21 22 21 20 20 20 21 20 18 18 19 20 21 20 19 21 22 21 20 17 19 23 25 24 25 25 23 22 20 19 18 20 22 21 21 19 15 14 14 13 15 20 24 24 23 23 23 22 22 22 21 22 23 23 24 25 24 21 19 17 16 16 18 21 21 19 19 19 17 16 16 16 16 16 15 16 16 16 15 15 16 17 18 18 19
Wind_Direction
299 298 299 301 302 300 297 296 296 296 296 296 296 296 296 298 299 300 301 301 302 304 305 306 306 305 304 304 303 301 299 290 279 265 248 239 229 217 208 201 198 195 191 193 193 186 179 176 179 172 155 147 142 138 113 128 134 84 82 73 108 150 160 185 142 147 148 130 122 119 117 117 111 109 110 116 116 109 108 107 112 114 113 115 117 122 125 124
298 297 298 298 299 299 297 295 294 294 294 294 294 294 295 296 297 298 299 299 301 302 303 303 303 302 303 304 302 302 300 287 276 264 252 243 226 215 207 200 196 192 189 192 193 187 180 177 181 174 163 165 176 175 132 117 130 104 88 74 100 138 166 147 134 139 141 129 123 121 118 115 110 112 116 114 112 109 106 108 110 109 112 118 122 125 127 127
296 296 296 296 298 298 297 294 293 293 293 293 292 292 293 294 295 296 297 297 299 301 301 300 299 300 301 302 301 302 298 289 278 264 260 239 216 210 202 198 195 191 191 192 191 187 186 191 197 190 180 184 189 171 140 96 95 113 89 77 98 125 135 122 120 130 135 129 124 121 115 112 113 111 115 119 115 115 117 118 117 117 122 125 127 128 129 129
295 295 295 295 296 297 297 294 292 291 291 291 291 290 290 291 292 294 295 295 298 298 298 296 295 297 297 299 299 299 297 290 275 253 257 226 204 202 197 195 192 190 192 193 191 189 196 204 203 204 200 191 188 181 165 101 63 103 103 104 101 108 130 126 120 128 131 131 127 122 117 116 124 123 126 130 125 129 135 131 128 129 131 130 131 134 133 133
295 294 294 294 294 295 296 294 292 290 289 289 290 289 288 288 289 291 292 292 295 295 294 292 291 292 291 293 292 294 294 286 271 244 267 223 196 193 192 193 191 189 190 191 189 189 198 204 199 206 200 179 187 208 199 176 103 89 109 121 116 106 119 121 124 130 128 128 121 114 112 111 116 122 131 133 133 144 142 137 133 134 136 136 137 139 138 139
297 295 294 293 292 293 294 294 292 290 289 288 288 287 286 286 286 288 289 289 292 292 289 285 285 285 284 286 284 282 267 252 271 274 283 208 186 187 188 190 190 188 188 187 184 184 193 196 186 180 167 159 183 196 175 169 133 104 111 114 115 115 115 114 127 134 127 122 117 116 115 112 105 106 125 126 126 139 139 137 134 135 139 141 142 143 144 145
300 297 295 294 292 292 292 293 292 290 288 287 286 285 285 284 284 285 285 285 288 288 285 280 278 278 280 277 270 266 251 249 259 267 253 192 180 184 186 188 189 187 185 183 181 181 186 188 180 170 158 147 166 180 175 162 138 127 125 128 122 120 124 121 124 120 114 114 117 121 117 114 111 105 120 118 115 130 137 136 134 137 142 145 146 148 148 150
303 300 297 295 293 292 291 291 290 288 287 286 285 284 283 282 282 282 282 281 283 284 280 275 273 273 276 269 261 261 252 248 248 249 226 190 182 185 186 188 188 185 184 183 181 178 179 183 183 176 165 168 194 202 182 159 148 145 128 134 129 119 121 116 120 117 111 113 112 109 100 100 107 109 118 121 121 130 137 138 137 141 145 148 150 150 149 153
304 302 299 296 294 292 291 290 289 287 286 285 284 283 282 280 280 280 279 277 278 279 275 271 270 269 269 261 255 256 251 246 238 227 208 193 187 188 189 188 186 185 184 184 183 179 178 182 186 183 176 218 242 212 179 177 176 160 138 134 136 129 126 125 129 124 118 117 110 105 102 101 107 110 114 123 128 135 140 140 141 145 149 153 153 151 150 157
306 303 300 298 295 293 291 290 289 287 285 284 283 282 281 279 278 278 276 273 272 274 270 267 266 264 262 254 245 245 244 238 223 210 203 200 193 191 192 190 186 185 185 184 183 181 181 183 187 189 206 242 219 179 177 180 163 151 146 143 143 136 134 134 126 120 121 120 114 110 114 112 110 109 112 125 134 140 142 141 145 148 153 156 151 150 155 162
308 305 302 300 297 294 292 290 289 288 285 283 282 281 279 278 277 276 273 270 268 268 265 263 262 259 258 249 240 237 232 222 209 201 203 204 198 196 193 190 188 186 186 185 185 186 188 195 203 204 234 222 192 178 162 163 161 155 154 147 143 138 129 129 127 129 131 125 122 119 116 113 108 109 119 134 140 142 141 142 148 148 153 154 145 153 165 166
307 306 305 302 300 297 293 291 289 288 286 284 281 279 278 277 275 274 271 267 264 262 259 259 256 255 255 247 238 232 226 221 213 204 206 204 199 198 193 190 189 188 187 186 188 191 196 205 212 218 238 220 201 194 167 166 172 162 156 152 150 148 134 136 140 141 139 131 132 125 115 110 105 113 125 135 141 142 143 145 149 147 150 146 141 158 172 168
305 305 305 303 302 299 296 292 289 287 286 284 282 280 277 275 274 272 268 264 261 258 256 254 251 252 252 245 239 233 227 224 221 215 208 203 201 197 193 192 190 190 190 190 193 195 199 209 221 241 245 225 204 187 176 170 168 158 154 158 159 157 150 154 146 143 142 136 139 132 117 114 104 115 129 138 141 143 148 149 150 150 147 138 141 162 174 170
304 303 303 303 302 300 298 295 291 287 284 283 282 280 278 275 272 268 265 261 258 255 251 249 247 247 246 245 242 235 228 223 228 226 208 199 200 194 193 194 193 193 192 195 200 199 204 218 237 251 222 195 187 182 181 168 167 164 160 166 169 166 162 158 150 155 153 144 151 146 130 140 122 119 135 145 145 145 150 152 153 152 145 138 143 162 173 171
301 301 301 301 301 300 299 297 294 289 285 282 280 280 278 276 271 265 262 259 257 253 248 245 244 243 246 246 242 235 227 223 230 226 206 198 198 195 194 195 196 195 194 199 203 206 220 234 236 226 192 190 201 190 183 174 178 179 175 180 175 170 174 168 165 173 165 161 170 159 144 156 141 131 139 149 151 150 153 154 157 154 147 141 146 163 169 169
299 299 299 300 299 299 299 298 297 293 287 282 279 278 277 274 270 264 259 256 255 250 244 241 238 238 242 239 237 232 222 220 223 219 207 200 199 197 195 195 197 197 197 201 204 212 230 234 215 199 191 197 195 183 177 175 184 186 180 181 175 176 188 179 178 180 168 169 183 184 175 171 160 147 145 156 158 157 156 156 160 158 156 147 147 165 164 164
298 298 298 298 298 298 298 298 297 295 291 286 280 276 274 272 267 263 258 252 250 245 239 238 234 236 238 235 239 232 218 216 216 214 209 202 199 198 194 195 197 196 198 201 204 213 223 215 198 195 197 198 191 188 191 186 186 184 181 184 186 192 196 185 184 183 178 186 193 203 185 172 170 159 153 165 163 159 160 163 167 163 163 154 152 166 159 159
298 297 297 296 296 296 296 297 297 296 294 289 282 275 271 268 263 260 256 247 243 240 238 236 232 233 233 229 233 229 220 215 213 213 208 201 200 199 194 195 195 195 198 201 204 210 214 204 193 195 203 204 202 200 196 188 178 179 187 195 193 194 197 193 194 196 196 195 188 186 176 171 177 175 170 171 167 166 166 168 171 166 164 159 160 168 156 158
298 297 296 295 295 295 295 295 296 296 294 291 285 277 267 260 256 253 249 241 236 237 238 233 225 226 229 228 229 227 222 214 210 211 205 199 200 199 196 196 196 197 199 200 202 203 204 200 194 199 207 210 211 204 195 188 181 183 191 197 192 192 198 196 203 210 201 195 194 192 186 181 183 187 184 177 177 179 177 175 171 167 167 165 170 174 160 162
298 297 296 294 294 294 293 294 294 295 294 290 286 279 264 253 251 248 246 243 241 241 242 234 226 226 232 236 233 226 222 214 208 208 203 200 199 199 198 197 198 200 200 198 199 199 199 202 202 202 208 213 214 205 196 194 195 193 192 197 195 195 200 197 202 206 199 211 214 202 200 193 189 196 196 189 189 187 183 184 180 174 173 173 180 181 172 171
297 297 295 294 294 293 293 292 292 293 291 286 280 274 262 255 252 251 253 251 247 244 242 237 231 229 232 236 232 227 222 213 208 206 203 201 201 201 199 197 200 202 200 199 200 201 201 205 208 206 208 212 214 208 203 207 210 205 204 208 202 201 206 204 204 204 205 220 211 204 217 206 199 208 206 200 201 199 191 190 194 189 181 184 190 184 178 178
296 296 295 295 293 293 292 291 291 290 286 278 273 267 261 259 255 255 258 256 251 247 242 238 234 233 233 232 231 229 222 212 208 207 203 201 202 202 198 197 202 202 201 202 204 206 206 208 208 207 209 212 216 213 208 213 219 218 219 218 209 205 208 209 210 212 212 213 204 210 223 210 207 214 211 209 213 208 199 197 201 199 194 199 200 186 183 186
295 295 294 294 293 293 291 290 289 285 277 271 269 264 262 267 266 261 258 256 254 249 243 237 232 231 229 226 227 226 217 210 210 207 203 202 203 202 199 199 203 203 203 205 208 209 210 210 207 206 211 214 216 213 210 214 220 227 230 226 215 208 210 212 212 212 209 210 212 213 215 213 215 221 218 213 215 214 207 206 207 204 205 209 208 197 193 195
295 294 293 293 293 292 290 290 286 275 272 271 266 263 267 275 276 268 259 255 253 249 245 238 232 229 223 221 228 222 211 210 212 207 204 204 204 203 202 202 204 206 206 207 210 215 214 209 207 212 216 216 215 211 211 214 219 231 235 233 223 212 214 210 203 202 203 213 219 209 215 234 229 227 225 219 221 220 212 212 213 209 210 213 214 208 204 204
295 293 292 292 292 291 290 287 278 272 274 269 263 266 272 275 278 273 261 254 251 247 243 236 230 227 222 222 226 215 207 213 214 209 206 205 204 204 204 204 205 208 209 208 211 217 216 210 209 216 219 220 220 214 213 214 221 233 233 230 225 219 217 199 190 196 207 221 220 207 222 248 237 227 225 227 229 227 220 219 217 212 212 214 216 214 212 213
295 293 291 290 290 291 288 279 273 276 273 263 263 270 272 272 276 275 262 254 251 245 238 228 222 223 220 219 217 208 209 217 216 212 208 206 207 206 205 207 207 209 209 208 212 215 215 211 211 217 218 219 223 221 217 215 219 229 225 223 226 233 230 197 191 203 217 228 223 213 227 245 236 230 228 230 232 233 232 225 219 217 216 218 218 217 218 219
295 293 291 289 288 289 282 272 275 276 266 261 267 271 270 270 274 272 261 253 251 241 230 222 218 218 216 214 211 208 213 215 214 214 208 205 208 208 208 208 207 210 209 209 214 215 213 212 212 217 220 219 221 222 219 212 215 225 222 215 217 227 232 208 204 214 224 233 229 221 229 238 234 235 231 229 231 238 241 234 228 225 223 224 222 219 220 221
294 292 291 287 285 283 275 270 274 270 261 263 269 269 268 268 268 264 254 251 248 235 224 219 217 215 213 211 210 211 215 212 211 213 207 204 208 209 210 210 209 211 210 212 216 213 214 216 213 215 220 222 220 217 216 213 218 227 220 212 211 220 233 223 215 222 225 228 230 223 223 236 238 237 233 227 228 235 240 240 238 232 228 228 225 223 222 221
293 292 290 287 283 278 270 266 266 263 261 264 266 267 265 263 261 251 245 244 243 237 225 217 214 212 211 210 209 212 215 214 213 210 203 204 208 210 212 212 212 212 213 217 219 214 215 219 217 214 216 222 221 215 216 216 220 223 217 221 230 228 234 230 215 221 222 221 232 227 220 233 244 233 228 227 228 235 240 243 244 235 229 228 227 226 224 222
292 290 288 287 281 274 269 264 260 259 261 262 264 265 260 254 248 240 239 238 239 240 224 215 213 209 209 210 209 211 214 215 214 208 203 204 208 211 214 214 214 215 215 219 221 219 218 218 219 219 218 221 221 218 219 220 219 216 214 226 237 231 229 226 217 220 224 228 243 239 223 229 244 233 225 229 234 238 240 241 242 236 228 226 228 229 226 223
292 289 286 284 277 272 269 262 257 256 258 260 263 261 252 244 237 235 236 236 240 237 220 215 212 207 209 211 209 210 213 215 213 209 205 205 208 210 211 213 214 216 219 219 220 222 221 218 220 221 219 218 219 221 222 221 218 215 214 222 229 228 226 228 230 229 231 236 244 251 240 235 246 244 236 238 241 239 238 238 238 234 228 226 227 228 226 224
291 288 285 280 273 269 263 257 257 258 256 257 257 251 243 238 234 233 233 235 236 226 214 213 212 209 212 212 211 210 212 214 214 211 208 206 210 211 210 211 210 214 220 218 217 220 223 222 219 218 218 216 217 222 221 218 216 216 220 224 225 230 228 229 236 235 239 243 240 251 262 253 255 255 244 241 243 239 236 238 236 233 229 225 225 228 228 225
290 287 283 277 270 264 259 257 258 257 254 251 247 240 237 237 234 231 231 230 227 219 213 213 212 212 213 212 213 212 213 214 214 213 209 207 211 212 212 213 212 213 219 218 215 216 222 226 220 217 218 216 216 218 216 215 215 215 220 221 220 225 225 226 233 237 248 253 243 245 259 262 264 265 250 242 243 239 232 232 230 227 226 222 223 227 229 226
290 286 281 274 267 261 257 256 253 251 248 242 239 235 232 236 235 233 231 227 227 228 228 227 217 213 215 215 214 213 214 215 213 213 211 208 211 213 213 214 215 215 217 218 218 216 219 224 221 217 215 213 215 217 215 213 214 216 218 217 218 222 221 224 230 233 246 254 243 241 250 256 258 265 260 245 239 232 226 227 226 223 222 218 219 223 226 227
289 284 279 273 266 259 253 251 248 245 241 236 234 232 230 234 234 232 230 224 224 228 234 243 231 216 216 218 217 215 215 215 213 214 213 209 211 214 213 213 214 215 215 217 220 219 219 223 221 219 216 212 216 221 217 209 212 219 219 217 222 226 225 231 234 231 238 249 244 241 249 253 250 259 264 240 225 222 222 226 226 223 222 219 220 226 230 234
288 284 279 271 264 257 249 246 242 238 235 234 233 231 231 233 231 229 226 219 220 226 238 252 239 219 215 218 220 218 215 215 214 215 215 212 212 214 214 214 214 214 215 217 219 218 218 222 220 214 213 215 218 220 215 209 213 220 217 217 223 226 224 231 236 233 236 247 249 247 255 258 251 257 259 228 214 220 223 223 222 220 221 221 225 231 234 236
287 284 278 268 261 253 244 239 236 232 232 233 233 233 232 233 232 230 224 220 226 233 244 255 244 222 215 215 219 218 213 213 214 214 215 213 213 215 215 215 215 215 217 217 220 218 215 221 220 208 211 219 219 218 216 213 216 221 220 222 226 229 229 232 241 242 239 245 249 247 249 247 242 250 247 222 210 216 222 223 220 218 218 223 230 235 236 236
286 282 276 268 259 248 238 233 230 229 231 234 235 235 234 233 233 230 226 226 233 238 244 247 242 231 223 218 217 216 213 211 212 214 216 215 216 215 215 216 215 215 218 217 218 219 217 223 225 214 214 220 217 213 214 216 222 227 225 223 221 225 229 230 238 242 238 244 251 252 251 248 246 244 233 219 214 214 217 222 224 225 226 229 234 234 234 236
283 279 272 267 257 242 230 227 228 229 231 235 235 235 235 235 234 231 229 230 233 239 244 241 236 237 234 226 219 215 213 212 213 215 217 218 219 217 215 217 216 214 216 217 217 219 220 225 230 221 215 215 214 213 212 216 224 226 222 220 217 221 226 227 232 235 232 237 246 256 261 259 256 245 227 221 223 218 217 224 231 233 232 233 236 234 235 240
279 273 267 265 255 235 222 222 227 230 233 236 235 235 236 236 235 232 232 232 231 235 238 236 235 238 236 232 228 220 214 213 215 217 218 218 219 218 215 216 217 215 215 216 216 218 220 223 232 226 214 212 215 215 212 215 220 220 218 217 218 223 226 227 234 236 230 233 241 250 260 263 262 249 227 217 220 220 222 230 237 236 232 232 235 238 243 247
275 266 263 263 243 221 217 224 231 233 236 237 236 236 236 236 236 233 231 231 231 232 234 234 236 236 232 233 233 224 217 215 215 217 219 216 218 220 217 216 218 216 214 215 215 216 217 219 225 221 211 213 218 215 213 216 219 220 219 216 218 223 224 228 239 237 229 233 237 238 251 261 258 240 221 215 220 226 228 229 233 232 231 234 236 238 245 250
268 257 255 257 237 219 222 233 236 235 236 237 236 237 237 236 237 235 231 231 231 230 231 231 233 234 230 230 231 224 221 220 218 217 218 218 219 222 220 217 217 216 214 214 214 215 217 219 224 221 214 218 221 217 216 218 221 222 222 220 221 225 228 231 238 236 233 236 235 230 240 251 247 228 213 214 218 221 224 229 233 231 229 234 239 243 248 252
264 258 253 253 245 233 233 238 238 237 237 238 238 238 238 236 235 234 230 229 228 228 228 227 231 235 232 229 227 223 222 223 222 220 220 221 221 221 220 216 215 215 214 214 214 213 216 218 220 223 221 220 222 221 219 218 219 222 222 221 221 224 226 231 235 234 233 232 228 227 235 238 239 233 220 216 216 216 225 242 247 241 234 233 240 250 254 253
265 260 251 249 245 239 239 240 237 237 238 239 239 238 238 237 234 232 229 226 224 225 226 226 230 234 229 223 223 223 220 220 226 225 223 226 224 219 218 216 214 214 213 212 211 210 213 215 213 217 218 213 214 219 218 216 218 220 220 221 222 221 222 229 240 239 234 228 221 224 233 234 235 233 226 226 233 236 240 245 242 238 237 240 247 254 255 254
263 254 246 247 246 241 241 240 238 239 238 238 238 237 237 237 234 232 230 228 226 226 227 228 232 234 229 223 224 226 224 222 227 225 223 231 227 220 219 216 214 215 213 210 208 208 212 214 212 213 212 207 211 218 217 215 218 223 224 224 226 226 225 229 235 235 234 232 226 223 226 231 234 232 227 230 237 240 243 244 240 238 242 246 250 254 256 255
257 248 243 245 246 244 242 240 239 238 238 238 239 237 236 236 234 231 230 229 227 228 231 232 232 233 230 226 225 227 226 224 224 222 223 236 229 221 224 220 213 214 214 210 207 209 214 216 213 213 216 214 216 222 219 212 214 223 226 225 227 231 232 228 226 229 232 233 234 229 220 222 231 232 230 232 235 239 244 245 243 240 243 246 248 254 259 258
250 246 246 246 246 245 242 239 238 237 237 239 238 237 238 237 233 229 227 226 225 228 231 230 228 227 226 224 224 227 228 225 223 223 228 239 232 222 227 226 216 214 215 212 209 210 214 216 213 213 216 216 215 221 220 210 212 220 224 223 224 229 234 230 228 231 231 231 238 233 221 221 229 232 233 236 239 241 243 244 242 242 246 250 252 253 256 258
248 247 249 248 244 241 240 239 240 240 239 239 236 235 238 239 235 229 225 225 227 228 228 228 227 226 225 223 225 229 230 227 225 225 229 237 234 221 223 229 222 216 215 212 209 210 213 214 213 213 217 218 217 222 222 214 216 224 228 227 224 228 235 236 235 234 229 232 238 233 227 228 232 234 236 238 241 243 244 245 244 245 247 247 246 247 252 257
253 248 248 248 244 242 243 243 244 242 239 239 237 233 233 236 236 232 226 227 231 228 225 227 228 228 226 225 225 228 231 231 228 224 225 231 228 215 214 222 225 219 214 211 210 212 214 215 215 215 219 222 223 225 227 227 227 230 238 238 226 225 232 235 236 234 230 234 237 232 233 238 239 240 240 240 241 242 242 242 240 241 243 242 245 252 257 259
254 249 248 248 244 242 243 242 241 239 237 238 238 233 232 234 235 232 227 228 234 232 228 229 230 228 227 226 227 229 231 233 232 227 225 225 221 212 208 213 222 221 215 213 213 213 216 218 217 216 219 222 223 226 230 233 233 234 239 241 232 230 235 237 238 238 236 241 241 232 238 246 245 244 244 240 237 235 236 238 240 244 250 250 256 263 264 264
254 252 250 247 240 238 240 240 238 236 233 234 236 236 234 233 235 234 229 227 232 236 236 236 231 226 226 228 229 231 232 233 235 233 226 219 215 212 208 210 218 218 217 218 215 212 215 219 217 217 220 222 223 228 230 230 234 238 238 237 237 238 241 241 242 241 240 244 242 235 240 247 245 241 238 232 228 230 237 243 248 254 259 261 262 266 269 270
255 254 250 246 238 234 237 239 236 232 230 232 239 241 238 236 237 236 230 228 230 234 240 242 233 223 222 225 228 230 232 233 233 231 224 217 215 215 214 219 222 217 219 224 217 210 212 216 216 216 220 223 225 232 233 227 230 235 234 235 240 243 245 246 250 254 250 244 241 239 239 239 233 227 227 229 232 238 245 249 254 259 264 266 264 265 272 277